This is the latest recevied weather packets stored in our database for station/object N4QD-13. If no packets are shown the sender has not sent any weather packets the latest 10 day(s).
| Time | Temp. | Humidity | Pressure | Rain* | Wind** | Luminosity | Snow |
|---|---|---|---|---|---|---|---|
| 1778077144 | 16.67° C | 99% | 1011.1 hPa | 0 mm | - | 236 W/m² | - |
| 1778076842 | 16.67° C | 99% | 1011.1 hPa | 0 mm | - | 170 W/m² | - |
| 1778076540 | 16.11° C | 99% | 1011.4 hPa | 0 mm | - | 140 W/m² | - |
| 1778076236 | 16.11° C | 99% | 1011.2 hPa | 0 mm | - | 99 W/m² | - |
| 1778075934 | 16.11° C | 99% | 1011 hPa | 0 mm | - | 94 W/m² | - |
| 1778075630 | 16.11° C | 99% | 1011.1 hPa | 0 mm | - | 121 W/m² | - |
| 1778075326 | 15.56° C | 99% | 1011.3 hPa | 0 mm | - | 140 W/m² | - |
| 1778075023 | 15.56° C | 99% | 1011.2 hPa | 0 mm | - | 111 W/m² | - |
| 1778074720 | 15.56° C | 99% | 1011.4 hPa | 0 mm | - | 94 W/m² | - |
| 1778074417 | 15.56° C | 99% | 1011.3 hPa | 0 mm | - | 81 W/m² | - |
| 1778074114 | 15.56° C | 99% | 1011.2 hPa | 0 mm | - | 74 W/m² | - |
| 1778073811 | 15.56° C | 99% | 1011.2 hPa | 1.27 mm | - | 52 W/m² | - |
| 1778073509 | 15.56° C | 99% | 1011 hPa | 1.27 mm | - | 37 W/m² | - |
| 1778073205 | 15.56° C | 99% | 1011.2 hPa | 1.78 mm | - | 39 W/m² | - |
| 1778072902 | 15.56° C | 98% | 1011.2 hPa | 1.78 mm | - | 40 W/m² | - |
| 1778072598 | 15.56° C | 97% | 1011.2 hPa | 1.78 mm | - | 55 W/m² | - |
| 1778072296 | 15.56° C | 96% | 1011.2 hPa | 1.78 mm | - | 65 W/m² | - |
| 1778071994 | 15.56° C | 96% | 1010.9 hPa | 1.78 mm | - | 60 W/m² | - |
| 1778071693 | 15.56° C | 95% | 1010.9 hPa | 1.27 mm | - | 64 W/m² | - |
| 1778071389 | 15.56° C | 94% | 1011 hPa | 1.27 mm | - | 63 W/m² | - |
| 1778071087 | 15.56° C | 94% | 1010.9 hPa | 1.78 mm | - | 44 W/m² | - |
| 1778070786 | 15.56° C | 94% | 1010.9 hPa | 1.78 mm | - | 23 W/m² | - |
| 1778070482 | 15.56° C | 94% | 1011.2 hPa | 0 mm | - | 26 W/m² | - |
| 1778070179 | 15.56° C | 94% | 1011.2 hPa | 0 mm | - | 42 W/m² | - |
| 1778069877 | 15.56° C | 93% | 1011.1 hPa | 0 mm | - | 50 W/m² | - |
* Rain latest hour (hover to see other rain measurements)
** Current wind speed in m/s (hover to see current wind gust speed)